Wind_Speed
10 9 8 7 7 6 6 6 6 7 8 7 7 6 7 7 6 6 6 5 6 6 6 6 7 7 6 6 6 6 6 6 6 6 5 4 4 3 3 2 3 3 4 4
12 10 10 10 9 8 7 7 7 9 9 9 9 7 7 7 6 5 6 5 6 6 7 7 7 7 6 7 7 7 6 6 7 6 6 5 5 4 4 3 3 4 4 5
13 12 12 12 11 10 9 8 9 10 10 10 9 8 8 7 7 7 7 6 6 7 8 8 8 8 7 7 7 7 6 6 7 7 7 6 6 5 5 4 4 5 5 5
15 15 14 13 12 12 11 11 11 10 10 9 10 8 9 9 9 8 8 7 7 8 8 9 9 8 8 7 7 7 7 7 7 7 7 7 7 6 6 5 6 6 6 6
17 17 16 15 14 14 14 13 12 11 11 10 10 9 9 10 9 9 8 8 8 8 9 9 9 9 9 8 8 7 7 7 7 8 8 8 8 7 7 6 6 7 7 7
19 19 19 17 16 15 15 14 14 13 12 11 11 10 9 11 10 10 9 9 9 9 9 9 9 10 10 9 9 8 7 8 8 8 8 8 8 8 7 7 7 7 8 8
20 20 20 19 18 17 16 14 12 12 13 12 14 12 11 12 12 11 10 9 9 9 9 10 10 10 10 10 10 10 9 9 9 9 9 10 9 9 8 8 8 9 9 10
20 20 20 20 20 19 18 15 14 13 13 14 14 12 12 12 12 12 11 10 10 10 10 10 11 11 11 11 10 10 10 10 10 10 11 11 11 10 10 10 9 10 10 11
21 21 21 21 21 20 19 17 16 15 14 13 13 13 12 12 13 13 12 12 12 12 12 12 12 12 12 12 12 12 11 11 11 11 11 11 11 11 11 11 11 11 11 12
22 22 22 22 22 22 21 19 17 16 15 14 15 14 12 13 13 13 13 13 14 14 14 14 13 13 13 13 13 14 13 13 13 13 12 13 13 12 12 12 12 13 13 13
22 22 22 22 23 21 21 21 19 18 17 15 15 14 15 14 14 14 14 15 14 14 14 14 15 15 15 14 14 15 15 15 15 14 14 14 14 14 14 14 14 14 14 13
23 22 22 23 23 23 23 22 21 19 19 18 16 17 18 16 15 15 16 16 15 15 15 16 16 16 17 16 16 15 16 17 16 16 15 15 14 15 15 15 14 15 15 14
25 24 23 22 23 24 24 23 22 21 21 20 19 19 20 19 18 17 17 18 17 17 17 17 17 18 18 19 18 17 17 18 18 17 17 16 16 16 16 16 16 15 15 15
26 26 25 23 22 23 24 24 24 23 22 22 22 21 22 21 20 19 19 19 19 18 18 18 19 19 19 19 20 20 20 20 19 18 18 18 18 17 17 17 16 16 17 17
28 29 28 27 27 26 25 26 26 25 24 23 23 23 23 23 22 21 20 20 21 20 20 21 21 21 20 20 21 21 21 21 20 20 19 19 19 19 18 18 18 18 18 19
30 30 29 28 28 28 27 27 26 26 25 26 26 25 25 25 23 22 21 22 22 22 22 22 22 22 22 22 22 22 22 21 21 21 21 20 20 20 20 19 19 19 20 20
31 30 30 29 29 29 29 28 27 26 26 26 26 26 26 25 23 23 23 23 23 24 24 24 23 23 23 23 22 22 21 21 21 21 21 21 20 21 21 20 20 20 21 21
31 31 30 29 29 30 29 29 28 27 26 27 27 27 26 26 24 24 24 24 24 24 24 24 24 24 24 23 23 22 22 22 22 22 22 22 22 22 21 21 21 21 21 22
31 31 31 30 29 31 31 31 28 28 27 27 27 27 27 26 26 25 24 23 23 24 24 24 25 24 24 24 24 23 23 22 22 23 23 23 23 23 23 22 22 22 22 23
32 32 32 32 31 31 30 32 30 29 29 28 28 27 27 27 26 26 25 24 24 24 24 24 24 24 24 24 24 23 24 24 24 24 24 24 24 23 24 24 23 24 24 25
33 33 33 33 33 32 32 32 30 30 30 29 28 28 28 28 27 27 26 26 26 26 24 24 23 23 23 24 24 24 24 25 25 25 24 25 25 24 25 25 25 25 26 25
32 33 34 34 33 34 34 33 32 31 30 30 30 29 28 28 28 28 28 28 28 26 25 24 23 23 23 24 24 24 25 25 25 25 25 24 24 25 26 26 26 26 26 25
33 33 33 34 34 34 34 33 32 32 31 31 30 29 29 29 29 30 29 28 28 27 27 26 26 25 25 25 25 25 25 25 24 25 25 25 25 25 25 25 25 25 25 25
31 32 32 32 33 33 33 33 33 32 32 31 30 30 30 30 30 30 29 29 28 28 27 28 27 27 26 25 25 25 25 24 24 24 24 25 25 25 25 26 25 25 25 25
29 29 30 31 31 31 31 32 32 31 30 30 30 30 30 30 30 30 30 30 29 29 28 27 27 27 27 26 26 25 25 25 25 24 24 24 26 26 26 26 26 26 26 26
28 28 28 29 29 29 29 30 30 30 30 29 28 28 29 29 29 29 30 31 31 30 29 28 28 28 27 27 27 26 25 24 25 25 25 25 26 27 27 27 27 27 28 28
Wind_Direction
237 234 230 233 236 243 251 252 262 273 285 294 302 312 320 327 332 333 332 333 344 345 347 350 352 352 355 1 2 2 4 10 16 17 11 8 8 3 349 335 325 313 305 297
237 237 235 236 235 243 254 260 266 274 283 287 295 306 308 310 321 324 321 321 329 338 335 336 337 335 340 345 348 350 352 358 4 6 3 357 353 349 348 338 325 319 314 302
235 237 240 241 241 245 252 257 261 271 281 286 293 306 307 306 308 312 314 313 316 320 322 324 324 325 326 331 334 338 343 346 349 350 347 345 342 335 338 337 331 322 316 307
236 238 241 242 246 250 251 257 259 265 275 284 289 295 304 304 304 305 303 302 308 310 313 318 320 318 317 318 322 329 330 331 334 336 337 337 335 328 324 320 320 320 316 311
239 239 241 242 247 252 252 257 262 265 273 281 291 296 296 303 305 301 295 292 296 300 303 307 310 312 309 307 310 315 320 320 323 324 324 327 328 325 321 316 314 318 313 307
240 241 241 241 247 252 255 260 267 271 274 278 283 289 289 293 298 297 291 288 288 295 297 298 299 302 301 297 299 303 307 309 314 318 320 323 322 318 316 312 307 306 305 303
243 243 243 242 245 249 253 257 266 274 276 276 279 281 278 282 288 291 289 284 285 290 294 295 298 300 297 292 292 296 296 300 304 308 311 314 312 308 307 306 304 300 299 299
242 244 244 242 244 249 252 251 253 263 273 278 280 279 281 283 284 287 286 281 283 283 286 288 291 294 294 289 288 289 291 294 298 299 303 305 306 304 301 302 304 305 300 297
240 243 244 243 243 245 249 250 252 259 266 273 274 278 280 282 285 285 283 280 280 280 281 283 286 287 287 284 283 282 287 291 295 297 301 305 308 305 302 300 302 302 300 298
240 243 243 242 243 245 247 249 254 258 263 270 273 277 279 282 283 282 282 281 280 282 282 283 287 286 285 284 282 280 281 286 289 292 297 299 301 301 300 300 301 303 301 299
241 243 244 242 242 246 247 249 252 256 258 266 274 276 276 281 284 282 281 283 283 283 284 283 285 285 287 286 284 283 281 282 283 287 291 293 295 296 297 297 298 300 300 300
241 242 244 245 244 244 246 249 253 256 261 262 266 274 275 278 280 280 279 282 281 280 280 279 282 283 285 285 282 282 282 284 282 283 286 289 292 292 292 293 294 295 296 298
241 241 245 248 249 247 247 249 251 254 259 262 265 271 273 274 274 273 274 277 278 277 277 279 280 281 283 284 281 280 281 283 280 279 282 285 287 288 289 290 292 293 294 297
241 242 241 242 246 250 251 251 251 253 257 262 264 264 270 274 273 272 272 273 274 274 274 276 278 278 279 281 281 281 280 281 279 279 279 281 284 282 283 286 290 291 291 293
243 244 244 242 244 247 250 251 252 254 255 259 264 268 270 271 271 269 270 271 270 270 271 273 275 277 278 279 280 279 278 278 277 276 278 280 280 279 280 283 286 288 289 291
243 245 246 247 247 248 250 252 254 255 257 259 262 266 268 270 271 269 269 270 268 269 269 271 274 277 279 279 279 278 277 278 279 278 278 279 279 280 280 280 283 285 287 289
244 246 247 248 249 249 251 253 253 255 258 262 264 267 268 270 273 271 270 271 271 269 270 271 272 275 278 277 275 275 276 278 279 278 277 277 278 279 281 280 281 283 285 287
243 244 247 248 251 251 251 252 253 255 259 261 264 265 267 269 271 271 270 270 270 269 270 271 273 275 276 275 276 276 275 277 276 276 276 276 277 278 280 279 281 282 283 286
242 243 245 247 250 253 253 253 253 255 258 260 263 264 265 268 269 269 269 270 271 270 271 270 271 273 275 273 273 274 274 273 275 275 275 276 277 278 279 280 281 282 282 285
243 243 245 247 248 252 255 256 255 258 259 260 262 264 265 266 268 269 269 269 272 273 272 272 271 270 272 272 271 271 271 271 273 273 272 274 275 277 279 280 281 281 281 283
243 243 245 247 250 252 253 255 256 257 260 261 262 263 263 264 266 268 268 268 272 273 272 272 271 270 271 272 272 271 271 271 272 272 271 272 273 275 277 278 279 279 280 282
244 245 245 247 249 251 253 254 255 257 258 260 261 261 261 262 263 265 266 267 268 269 271 271 271 272 274 275 275 272 271 270 270 271 270 271 271 273 275 276 277 278 280 281
244 244 245 246 249 251 253 254 254 255 256 258 259 260 261 261 261 263 265 267 269 269 270 271 272 272 274 275 274 272 271 270 270 271 270 269 271 274 275 275 277 279 280 280
247 245 246 247 249 250 251 253 253 254 256 257 259 261 262 261 261 262 264 266 269 269 270 271 271 271 272 272 271 271 270 268 270 270 270 269 270 273 275 276 278 278 278 279
249 249 249 249 250 250 251 251 252 253 255 258 260 261 260 260 261 263 264 264 265 268 269 270 269 270 271 270 269 268 268 267 268 270 272 272 271 273 274 276 277 278 277 277
246 247 247 249 249 249 250 251 252 252 254 257 260 259 259 259 261 262 263 263 264 265 267 268 269 271 273 273 270 266 267 266 267 270 272 273 274 274 274 275 275 275 276 277
Height
5917 5919 5920 5921 5922 5923 5923 5923 5923 5922 5921 5921 5921 5920 5920 5918 5917 5915 5914 5913 5912 5910 5909 5907 5905 5904 5903 5901 5900 5899 5897 5896 5894 5893 5892 5890 5889 5888 5887 5886 5885 5884 5884 5883
5916 5917 5918 5918 5919 5920 5921 5921 5921 5921 5920 5920 5920 5919 5918 5917 5916 5915 5914 5912 5911 5910 5908 5907 5905 5904 5902 5901 5900 5899 5897 5896 5895 5893 5892 5890 5889 5887 5886 5885 5884 5884 5883 5883
5913 5915 5915 5916 5917 5918 5919 5919 5919 5919 5918 5918 5918 5919 5918 5917 5915 5914 5913 5912 5910 5909 5908 5906 5905 5903 5902 5901 5899 5898 5897 5896 5895 5893 5892 5890 5889 5887 5886 5885 5884 5883 5882 5882
5909 5911 5912 5913 5914 5915 5916 5917 5917 5917 5917 5917 5917 5918 5917 5915 5914 5913 5911 5910 5909 5908 5906 5905 5904 5902 5901 5900 5899 5897 5896 5895 5894 5893 5891 5890 5888 5887 5885 5884 5883 5882 5881 5881
5906 5908 5909 5910 5912 5912 5913 5913 5914 5914 5915 5915 5915 5916 5917 5913 5912 5911 5910 5908 5907 5906 5905 5903 5902 5901 5899 5898 5897 5896 5895 5894 5893 5891 5890 5889 5887 5886 5884 5883 5882 5881 5880 5879
5903 5904 5905 5907 5908 5909 5910 5911 5911 5912 5913 5914 5913 5914 5914 5911 5910 5909 5908 5906 5905 5904 5902 5901 5900 5899 5898 5896 5895 5894 5894 5893 5891 5890 5889 5887 5886 5885 5883 5882 5881 5880 5878 5877
5899 5900 5901 5903 5904 5905 5907 5909 5911 5911 5911 5912 5910 5910 5910 5908 5906 5906 5905 5903 5902 5901 5900 5899 5898 5896 5895 5894 5893 5892 5892 5891 5890 5888 5887 5886 5884 5883 5881 5880 5879 5878 5876 5875
5895 5897 5897 5899 5901 5902 5903 5906 5908 5909 5910 5909 5906 5906 5906 5904 5903 5902 5901 5900 5900 5899 5898 5896 5895 5894 5893 5892 5891 5890 5889 5888 5887 5886 5885 5884 5882 5881 5879 5878 5876 5875 5874 5872
5890 5892 5893 5894 5896 5898 5899 5900 5903 5904 5903 5903 5904 5902 5902 5900 5899 5899 5898 5897 5896 5895 5895 5893 5892 5891 5890 5889 5888 5887 5886 5886 5885 5884 5882 5881 5879 5878 5877 5875 5874 5873 5871 5870
5885 5887 5888 5889 5891 5893 5895 5896 5897 5898 5899 5900 5900 5899 5899 5896 5896 5895 5894 5893 5892 5892 5891 5890 5889 5888 5887 5885 5885 5884 5883 5882 5882 5881 5880 5878 5877 5875 5874 5873 5871 5870 5868 5867
5879 5882 5883 5885 5886 5888 5890 5891 5892 5894 5894 5896 5897 5898 5893 5892 5892 5891 5890 5889 5888 5888 5887 5886 5885 5884 5883 5882 5881 5880 5880 5879 5878 5877 5876 5875 5874 5873 5871 5870 5868 5867 5865 5864
5873 5876 5878 5879 5880 5882 5883 5885 5887 5889 5888 5889 5891 5894 5888 5887 5887 5886 5886 5885 5884 5883 5882 5882 5881 5880 5879 5878 5877 5876 5876 5875 5874 5873 5873 5872 5870 5869 5868 5867 5865 5864 5862 5861
5866 5869 5872 5874 5876 5876 5877 5879 5881 5883 5883 5884 5886 5888 5882 5882 5881 5881 5880 5880 5879 5879 5878 5877 5876 5875 5874 5873 5872 5872 5871 5870 5869 5869 5868 5867 5866 5865 5864 5863 5861 5860 5858 5857
5860 5863 5866 5870 5870 5870 5871 5873 5874 5876 5877 5878 5879 5879 5877 5876 5876 5875 5875 5874 5874 5873 5873 5872 5871 5870 5869 5868 5867 5867 5866 5865 5864 5864 5863 5862 5862 5860 5859 5858 5857 5856 5855 5853
5853 5855 5857 5860 5862 5864 5865 5866 5868 5869 5871 5872 5872 5871 5871 5870 5870 5869 5869 5868 5868 5867 5867 5866 5865 5864 5863 5862 5861 5861 5860 5859 5859 5858 5858 5857 5856 5856 5855 5853 5853 5851 5850 5849
5845 5848 5850 5852 5854 5856 5857 5859 5860 5862 5863 5864 5864 5864 5863 5863 5863 5863 5862 5862 5861 5861 5860 5860 5859 5858 5857 5856 5855 5855 5854 5854 5853 5853 5852 5851 5851 5850 5849 5848 5847 5846 5845 5844
5837 5840 5842 5845 5846 5848 5850 5852 5853 5854 5855 5857 5857 5858 5856 5856 5856 5856 5856 5855 5855 5854 5853 5853 5852 5852 5851 5850 5849 5848 5848 5848 5847 5847 5846 5845 5845 5844 5843 5843 5842 5841 5840 5838
5829 5831 5834 5837 5839 5840 5844 5843 5845 5847 5848 5849 5849 5849 5849 5849 5849 5849 5849 5848 5848 5847 5847 5846 5845 5845 5843 5843 5842 5842 5842 5842 5841 5841 5840 5839 5839 5838 5837 5836 5836 5835 5834 5832
5821 5823 5826 5828 5830 5832 5834 5835 5838 5839 5840 5841 5841 5842 5842 5842 5842 5842 5842 5841 5841 5840 5840 5839 5838 5837 5836 5836 5836 5835 5835 5835 5835 5834 5834 5833 5833 5832 5832 5831 5830 5829 5828 5826
5812 5814 5818 5819 5822 5824 5828 5827 5829 5832 5831 5833 5834 5834 5835 5835 5835 5835 5835 5835 5834 5833 5833 5832 5831 5830 5830 5829 5829 5828 5828 5828 5828 5827 5827 5826 5826 5826 5825 5824 5823 5822 5821 5820
5803 5805 5808 5810 5813 5815 5816 5818 5821 5824 5824 5825 5825 5826 5827 5827 5827 5827 5827 5827 5827 5826 5825 5825 5824 5824 5823 5822 5822 5821 5821 5821 5821 5820 5820 5819 5819 5818 5818 5817 5816 5815 5814 5813
5794 5797 5799 5801 5804 5808 5807 5809 5812 5813 5814 5815 5816 5817 5818 5818 5819 5819 5819 5819 5819 5818 5818 5818 5817 5817 5816 5815 5815 5814 5814 5814 5813 5813 5813 5812 5812 5811 5811 5810 5809 5808 5807 5805
5784 5787 5789 5792 5795 5796 5797 5799 5801 5803 5805 5806 5807 5808 5809 5809 5810 5810 5811 5811 5810 5810 5810 5810 5810 5809 5809 5808 5808 5807 5807 5807 5806 5806 5805 5805 5804 5804 5803 5802 5802 5801 5799 5798
5775 5777 5779 5782 5784 5786 5788 5789 5791 5793 5795 5797 5798 5799 5800 5800 5801 5802 5802 5802 5802 5802 5801 5801 5802 5801 5801 5800 5800 5800 5799 5799 5799 5799 5798 5797 5797 5796 5796 5795 5794 5793 5792 5790
5766 5768 5770 5772 5774 5777 5778 5780 5782 5784 5786 5787 5789 5790 5791 5792 5793 5793 5794 5794 5794 5794 5794 5793 5793 5793 5793 5792 5791 5791 5791 5792 5791 5791 5791 5790 5790 5789 5788 5787 5786 5785 5784 5783
5757 5760 5762 5764 5765 5767 5769 5771 5773 5775 5777 5778 5779 5780 5781 5782 5783 5784 5784 5785 5785 5785 5785 5785 5785 5785 5784 5784 5783 5783 5783 5784 5784 5783 5783 5783 5782 5781 5780 5779 5779 5778 5777 5775